Location: Madrid
(40.4000°N, 3.6830°W)
Time: 09:02:54
(UTC+01:00)

ISS - Pass Details

Date: 18 November 2017
Orbit: 402 x 407 km, 51.6° (Epoch: 21 November)

Event Time Altitude Azimuth Distance (km) Brightness Sun altitude
Exits shadow 07:03:58 16° 256° (WSW) 1,158 -2.0 -11.6°
Maximum altitude 07:05:08 19° 228° (SW) 1,044 -2.1 -11.4°
Drops below altitude 10° 07:07:28 10° 182° (S) 1,444 -0.8 -11.0°
Sets 07:09:56 0° 163° (SSE) 2,298 0.5 -10.5°
